This is the latest recevied weather packets stored in our database for station/object HS5BOG-13. If no packets are shown the sender has not sent any weather packets the latest 10 day(s).
| Time | Temp. | Humidity | Pressure | Rain* | Wind** | Luminosity | Snow |
|---|---|---|---|---|---|---|---|
| 1778297799 | 29.44° C | 81% | 994.7 hPa | - | - | - | - |
| 1778297194 | 29.44° C | 83% | 994.9 hPa | - | - | - | - |
| 1778296588 | 29.44° C | 89% | 995 hPa | - | - | - | - |
| 1778295983 | 29.44° C | 91% | 995.2 hPa | - | - | - | - |
| 1778295377 | 29.44° C | 91% | 995.3 hPa | - | - | - | - |
| 1778294771 | 28.89° C | 91% | 995.4 hPa | - | - | - | - |
| 1778294166 | 28.89° C | 91% | 995.5 hPa | - | - | - | - |
| 1778293560 | 28.89° C | 90% | 995.5 hPa | - | - | - | - |
| 1778292955 | 28.89° C | 92% | 995.4 hPa | - | - | - | - |
| 1778292349 | 28.89° C | 93% | 995.4 hPa | - | - | - | - |
| 1778291744 | 28.33° C | 94% | 995.4 hPa | - | - | - | - |
| 1778291138 | 28.33° C | 95% | 995.3 hPa | - | - | - | - |
| 1778290532 | 28.33° C | 95% | 995.4 hPa | - | - | - | - |
| 1778289927 | 28.33° C | 95% | 995.3 hPa | - | - | - | - |
| 1778289321 | 28.33° C | 94% | 995.2 hPa | - | - | - | - |
| 1778286899 | 27.78° C | 97% | 995.1 hPa | - | - | - | - |
| 1778284477 | 28.33° C | 99% | 994.6 hPa | - | - | - | - |
| 1778283871 | 28.33° C | 98% | 994.5 hPa | - | - | - | - |
| 1778282660 | 28.33° C | 97% | 994.3 hPa | - | - | - | - |
| 1778281449 | 28.33° C | 97% | 993.9 hPa | - | - | - | - |
| 1778278421 | 28.33° C | 95% | 993.5 hPa | - | - | - | - |
| 1778276604 | 28.33° C | 95% | 993.2 hPa | - | - | - | - |
| 1778275393 | 28.33° C | 93% | 993 hPa | - | - | - | - |
| 1778274182 | 28.33° C | 92% | 992.8 hPa | - | - | - | - |
| 1778271759 | 28.33° C | 91% | 992.6 hPa | - | - | - | - |
* Rain since midnight (hover to see other rain measurements)
** Current wind speed in m/s (hover to see current wind gust speed)